Weather History for KRIL - July, 2012

Change the Weather History Date:

Wednesday, July 11, 2012

  Actual Average Record
Temperature  
Mean Temperature 76 °F 73 °F  
Max Temperature 95 °F 91 °F 102 °F (2003)
Min Temperature 56 °F 54 °F 38 °F (1959)
Degree Days  
Heating Degree Days 0 0  
Month to date heating degree days 0 0  
Since 1 June heating degree days 10 59  
Since 1 July heating degree days 0 0  
Cooling Degree Days 11 8  
Month to date cooling degree days 114 76  
Year to date cooling degree days 333 178  
Since 1 June cooling degree days 325 171  
Growing Degree Days 25 (Base 50)    
Moisture  
Dew Point 40 °F    
Average Humidity 37    
Maximum Humidity 61    
Minimum Humidity 13    
Precipitation  
Precipitation 0.00 in 0.02 in 0.45 in (1953)
Month to date precipitation 0.23 0.25  
Year to date precipitation 2.80 6.69  
Sea Level Pressure  
Sea Level Pressure 29.93 in    
Wind  
Wind Speed 8 mph (NNE)    
Max Wind Speed 28 mph    
Max Gust Speed 32 mph    
Visibility 10 miles    
Events      
T = Trace of Precipitation, MM = Missing Value Source: NWS Daily Summary

Daily Weather History Graph

Daily Weather History Graph

Search for Another Location

Airport or City:

Trip Planner

Search our weather history database for the weather conditions in past years. The results will help you decide how hot, cold, wet, or windy it might be!

Date:

Astronomy

Jul. 11, 2012 Rise Set
Actual Time 5:53 AM MDT 8:39 PM MDT
Civil Twilight 5:21 AM MDT 9:10 PM MDT
Nautical Twilight 4:41 AM MDT 9:50 PM MDT
Astronomical Twilight 3:56 AM MDT 10:35 PM MDT
Moon 12:28 AM MDT (7/11) 2:17 PM MDT (7/11)
Length of Visible Light 15h 48m
Length of Day
14h 45m
Last Quarter, 44% of the Moon is Illuminated
Jul 11
Last Quarter
Jul 18
New
Jul 26
First Quarter
Aug 1
Full
Aug 9
Last Quarter

Hourly Weather History & Observations

Time (MDT) Temp. Dew Point Humidity Pressure Visibility Wind Dir Wind Speed Gust Speed Precip Events Conditions
12:53 AM 69.1 °F 41.0 °F 36% 29.94 in 10.0 mi East 6.9 mph - N/A   Clear
1:53 AM 64.9 °F 39.9 °F 40% 29.96 in 10.0 mi ESE 3.5 mph - N/A   Clear
2:53 AM 63.0 °F 37.9 °F 40% 29.96 in 10.0 mi SSE 3.5 mph - N/A   Clear
4:53 AM 59.0 °F 41.0 °F 51% 29.99 in 10.0 mi Calm Calm - N/A   Clear
5:53 AM 55.9 °F 43.0 °F 62% 30.01 in 10.0 mi NE 3.5 mph - N/A   Clear
6:53 AM 61.0 °F 43.0 °F 52% 30.02 in 10.0 mi Calm Calm - N/A   Clear
7:53 AM 66.0 °F 42.1 °F 42% 30.03 in 10.0 mi Calm Calm - N/A   Clear
8:53 AM 72.0 °F 43.0 °F 35% 30.03 in 10.0 mi Calm Calm - N/A   Clear
9:53 AM 77.0 °F 43.0 °F 30% 30.01 in 10.0 mi Variable 3.5 mph - N/A   Clear
10:53 AM 81.0 °F 41.0 °F 24% 30.00 in 10.0 mi NW 4.6 mph - N/A   Clear
11:53 AM 86.0 °F 42.1 °F 21% 29.97 in 10.0 mi West 5.8 mph - N/A   Clear
12:53 PM 91.0 °F 39.9 °F 17% 29.92 in 10.0 mi NW 6.9 mph - N/A   Clear
1:53 PM 91.9 °F 37.9 °F 15% 29.89 in 10.0 mi Variable 5.8 mph - N/A   Clear
2:53 PM 93.0 °F 37.9 °F 15% 29.87 in 10.0 mi West 9.2 mph 18.4 mph N/A   Clear
3:53 PM 95.0 °F 37.9 °F 14% 29.85 in 10.0 mi West 17.3 mph 23.0 mph N/A   Clear
4:53 PM 93.0 °F 37.9 °F 15% 29.85 in 10.0 mi West 24.2 mph - N/A   Clear
5:53 PM 93.0 °F 36.0 °F 13% 29.84 in 10.0 mi West 24.2 mph 32.2 mph N/A   Clear
6:53 PM 91.9 °F 33.1 °F 12% 29.83 in 10.0 mi West 13.8 mph 24.2 mph N/A   Clear
7:53 PM 87.1 °F 37.9 °F 18% 29.86 in 10.0 mi NE 10.4 mph - N/A   Clear
8:53 PM 80.1 °F 42.1 °F 26% 29.87 in 10.0 mi East 12.7 mph - N/A   Clear
9:53 PM 78.1 °F 43.0 °F 29% 29.91 in 10.0 mi East 13.8 mph - N/A   Clear
10:53 PM 78.1 °F 41.0 °F 27% 29.92 in 10.0 mi ESE 11.5 mph - N/A   Clear
11:53 PM 73.9 °F 42.1 °F 32% 29.94 in 10.0 mi East 6.9 mph - N/A   Clear